Location: Unspecified
(0.0000°N, 0.0000°E)
Time: 11:32:23
(UTC+01:00)

H-2A R/B - Visible Passes

Search period start: 21 January 2018 00:00
Search period end: 31 January 2018 00:00
Orbit: 249 x 33046 km, 28.4° (Epoch: 20 January)

Date Brightness Start Highest point End Pass type
(mag) Time Alt. Az. Time Alt. Az. Time Alt. Az.
21 Jan 6.0 01:25:57 10° WNW 05:08:53 28° WNW 09:59:09 10° S visible
21 Jan 6.9 20:07:09 10° WNW 20:38:07 44° NNE 05:06:19 10° SE visible
23 Jan 5.9 01:51:09 10° WNW 03:33:06 29° WNW 07:12:31 10° W visible
23 Jan 7.1 20:26:27 10° NW 03:03:39 85° NW 05:25:22 10° SE visible
24 Jan 8.9 21:41:35 10° E 22:49:42 14° E 23:35:52 10° E visible
25 Jan 8.6 02:18:20 10° WNW 03:47:56 24° WNW 06:38:05 10° W visible
25 Jan 7.2 20:45:36 10° NW 02:30:06 81° NW 05:43:59 10° SE visible
26 Jan 8.7 21:01:14 10° E 23:07:04 20° E 00:13:37 10° ESE visible
27 Jan 8.8 02:49:24 10° WNW 04:02:49 18° WNW 04:35:53 17° WNW visible
27 Jan 7.4 21:04:37 10° NW 02:01:53 78° NNW 06:02:16 10° SE visible
28 Jan 8.6 21:05:19 14° E 23:24:13 26° E 00:41:53 10° ESE visible
29 Jan 9.0 03:30:54 10° WNW 04:17:37 13° WNW 05:04:59 11° WNW visible
29 Jan 7.5 21:23:29 10° NW 02:05:52 74° NW 06:20:11 10° SE visible
